Starlink 32958

operational
NORAD ID: 63563 Int'l Des: 2025-075 Owner: SPXS Country: US Constellation: starlink
LEOCIRCULAR

Über Starlink 32958

Beschreibung wird geladen...

Live-Position

3D-Globus wird geladen...

Nächste Überflüge

Höhenverlauf

Altitude vs Time

uPlot chart will show altitude changes over time

Zweizeiliger Elementsatz

1 63563U 25075R 25351.08121943 .00027065 00000-0 98859-3 0 9998
2 63563 43.0001 17.1511 0000718 245.5467 114.5310 15.27608004 39299
Epoch: 17. Dez. 2025 • Age: 29 hours

Aktueller Status

Höhe 486.2 km
Geschwindigkeit 7.63 km/s
Subsatellitenpunkt 42.45°N, 73.42°W
Startdatum 13. Apr. 2025
Alter 0.6 years
Typ internet

Technische Details

Klassifizierung Payload
Masse 730.00 kg
Trockenmasse 700.00 kg
Gesamtmasse 730.00 kg
Länge 0.30 m
Durchmesser 4.10 m
Spannweite 29.00 m
Form Box + pan
Hersteller SPXS
Bus-Typ Starlink V2M
Phasenstatus In Orbit
Besitzer/Staat SPXS/US

Große Konstellationen

Loading constellations...